﻿ProjectID	SampleID	SampleType	TaxonomyID	UniqCodeType	UniqCode	SampleName	ScientificName	CommonName	CollectionYear	CollectionMonth	CollectionDay	SamplingTimeStartEnd	SamplingTimeAMPM	SamplingDuration	WeatherStartEnd	CollectionRegion	CollectionCountry	CollectionArea	CollectionLatitudeFrom	CollectionLatitudeTo	CollectionLongitudeFrom	CollectionLongitudeTo	Sex	TissueOrgan	TissueLipid	TissueMoist	Weight	WeightUnit	Length	LengthUnit	LengthType	GrowthStage	Age	Disease	TemperatureStartEnd	WaterTemperatureStartEnd	pH	DO	EC	EC_temp	Salinity	SS	WaterDepthM	TransparencyM	WaterColor	SedimentTemperatureStartEnd	SedimentDepthM	SedimentAppearance	SedimentColor	SedimentSurfaceColor	SedimentOdor	SedimentImpurities	SedimentMoistureOnSiteAnalysis	IgnitionLossOnSiteAnalysis	SoilDepthM	FlowRate	MeanPM10	MeanTotalSuspendedParticles	HumidityStartEnd	WindDirectionStartEnd	WindSpeedMSStartEnd	AmountOfCollectedAirStartEnd	Remarks	RegisterDate	UpdateDate
PRA000117	SAA008379	ST014				"St.01_hiroshima bay_2017"	Water	"Sea water"	2017	8	1	10:18				Asia	Japan	"Hiroshima bay"	34.26805556		132.2666667														30.2	27.7					30.1		17.8																					2021/12/14	2021/12/14
PRA000117	SAA008380	ST014				"St.05_hiroshima bay_2017"	Water	"Sea water"	2017	8	1	12:40				Asia	Japan	"Hiroshima bay"	34.30194444		132.3505556														30.9	27.1					28.2		16.7																					2021/12/14	2021/12/14
PRA000117	SAA008381	ST014				"St.07_hiroshima bay_2017"	Water	"Sea water"	2017	8	1	11:37				Asia	Japan	"Hiroshima bay"	34.26777778		132.4002778														30	28.4					30		37.6																					2021/12/14	2021/12/14
PRA000117	SAA008382	ST014				"St.13_hiroshima bay_2017"	Water	"Sea water"	2017	8	1	14:58				Asia	Japan	"Hiroshima bay"	34.30111111		132.4525														31.1	29					28.7		19.5																					2021/12/14	2021/12/14
PRA000117	SAA008383	ST014				"St.19_hiroshima bay_2017"	Water	"Sea water"	2017	8	1	12:12				Asia	Japan	"Hiroshima bay"	34.28361111		132.3688889														30.6	26.6					29.5		25.1																					2021/12/14	2021/12/14
PRA000117	SAA008384	ST014				"St.20_hiroshima bay_2017"	Water	"Sea water"	2017	8	1	13:10				Asia	Japan	"Hiroshima bay"	34.30111111		132.4														30.7	26.9					29.2		22.5																					2021/12/14	2021/12/14
PRA000117	SAA008385	ST014				"St.21_hiroshima bay_2017"	Water	"Sea water"	2017	8	1	13:55				Asia	Japan	"Hiroshima bay"	34.33333333		132.3847222														30	25.9					28.4		13.6																					2021/12/14	2021/12/14
PRA000117	SAA008386	ST014				"St.22_hiroshima bay_2017"	Water	"Sea water"	2017	8	1	14:24				Asia	Japan	"Hiroshima bay"	34.33569444		132.4169444														30.6	26.9					28		12.5																					2021/12/14	2021/12/14
PRA000117	SAA008387	ST014				"St.23_hiroshima bay_2017"	Water	"Sea water"	2017	8	1	15:27				Asia	Japan	"Hiroshima bay"	34.285		132.4175														31.7	27.1					29.7		18.6																					2021/12/14	2021/12/14
PRA000117	SAA008388	ST014				"St.02_hiroshima bay_2018"	Water	"Sea water"	2018	7	9					Asia	Japan	"Hiroshima bay"	34.25111111		132.2338889															20.8					30.7																							2021/12/14	2021/12/14
PRA000117	SAA008389	ST014				"St.03_hiroshima bay_2018"	Water	"Sea water"	2018	7	9					Asia	Japan	"Hiroshima bay"	34.21888889		132.2672222															19.7					31.3																							2021/12/14	2021/12/14
PRA000117	SAA008390	ST014				"St.04_hiroshima bay_2018"	Water	"Sea water"	2018	7	9					Asia	Japan	"Hiroshima bay"	34.25166667		132.3333333															17.9					31.8																							2021/12/14	2021/12/14
PRA000117	SAA008391	ST014				"St.05_hiroshima bay_2018"	Water	"Sea water"	2018	7	9					Asia	Japan	"Hiroshima bay"	34.30194444		132.3505556															19.5					27.9																							2021/12/14	2021/12/14
PRA000117	SAA008392	ST014				"St.06_hiroshima bay_2018"	Water	"Sea water"	2018	7	9					Asia	Japan	"Hiroshima bay"	34.31694444		132.3177778															21.1					29.3																							2021/12/14	2021/12/14
PRA000117	SAA008393	ST014				"St.07_hiroshima bay_2018"	Water	"Sea water"	2018	7	10					Asia	Japan	"Hiroshima bay"	34.26777778		132.4002778															19.2					30.1																							2021/12/14	2021/12/14
PRA000117	SAA008394	ST014				"St.08_hiroshima bay_2018"	Water	"Sea water"	2018	7	9					Asia	Japan	"Hiroshima bay"	34.21833333		132.3683333															17.5					32																							2021/12/14	2021/12/14
PRA000117	SAA008395	ST014				"St.09_hiroshima bay_2018"	Water	"Sea water"	2018	7	10					Asia	Japan	"Hiroshima bay"	34.18333333		134.4344444															19					32.3																							2021/12/14	2021/12/14
PRA000117	SAA008396	ST014				"St.10_hiroshima bay_2018"	Water	"Sea water"	2018	7	10					Asia	Japan	"Hiroshima bay"	34.11833333		132.3341667															19.3					32.4																							2021/12/14	2021/12/14
PRA000117	SAA008397	ST014				"St.11_hiroshima bay_2018"	Water	"Sea water"	2018	7	12					Asia	Japan	"Hiroshima bay"	34.20111111		132.5013889															19.8					30.8																							2021/12/14	2021/12/14
PRA000117	SAA008398	ST014				"St.12_hiroshima bay_2018"	Water	"Sea water"	2018	7	12					Asia	Japan	"Hiroshima bay"	34.28472222		132.4836111															19.1					31.2																							2021/12/14	2021/12/14
PRA000117	SAA008399	ST014				"St.13_hiroshima bay_2018"	Water	"Sea water"	2018	7	12					Asia	Japan	"Hiroshima bay"	34.30111111		132.4525															19.9					30																							2021/12/14	2021/12/14
PRA000117	SAA008400	ST014				"St.14_hiroshima bay_2018"	Water	"Sea water"	2018	7	11					Asia	Japan	"Hiroshima bay"	34.23583333		132.4516667															22.4					31.5																							2021/12/14	2021/12/14
PRA000117	SAA008401	ST014				"St.15_hiroshima bay_2018"	Water	"Sea water"	2018	7	11					Asia	Japan	"Hiroshima bay"	34.2175		132.4672222															20.7					31.9																							2021/12/14	2021/12/14
PRA000117	SAA008402	ST014				"St.16_hiroshima bay_2018"	Water	"Sea water"	2018	7	11					Asia	Japan	"Hiroshima bay"	34.2675		132.4183333															18.1					32																							2021/12/14	2021/12/14
PRA000117	SAA008403	ST014				"St.17_hiroshima bay_2018"	Water	"Sea water"	2018	7	9					Asia	Japan	"Hiroshima bay"	34.20111111		132.3180556															19.1					31.1																							2021/12/14	2021/12/14
PRA000117	SAA008404	ST014				"St.18_hiroshima bay_2018"	Water	"Sea water"	2018	7	10					Asia	Japan	"Hiroshima bay"	34.18472222		132.3833333															18.4					32.4																							2021/12/14	2021/12/14
PRA000117	SAA008405	ST014				"St.19_hiroshima bay_2018"	Water	"Sea water"	2018	7	10					Asia	Japan	"Hiroshima bay"	34.28361111		132.3688889															19.5					29.5																							2021/12/14	2021/12/14
PRA000117	SAA008406	ST014				"St.20_hiroshima bay_2018"	Water	"Sea water"	2018	7	11					Asia	Japan	"Hiroshima bay"	34.30111111		132.4															19.7					27.8																							2021/12/14	2021/12/14
PRA000117	SAA008407	ST014				"St.21_hiroshima bay_2018"	Water	"Sea water"	2018	7	11					Asia	Japan	"Hiroshima bay"	34.33333333		132.3847222															19.6					30.3																							2021/12/14	2021/12/14
PRA000117	SAA008408	ST014				"St.22_hiroshima bay_2018"	Water	"Sea water"	2018	7	11					Asia	Japan	"Hiroshima bay"	34.33569444		132.4169444															18.4					29.9																							2021/12/14	2021/12/14
PRA000117	SAA008409	ST014				"St.23_hiroshima bay_2018"	Water	"Sea water"	2018	7	12					Asia	Japan	"Hiroshima bay"	34.285		132.4175															19.8					30.9																							2021/12/14	2021/12/14
PRA000117	SAA008410	ST014				"St.02_hiroshima bay_2019"	Water	"Sea water"	2019	7	12					Asia	Japan	"Hiroshima bay"	34.25111111		132.2338889															24					27.5																							2021/12/14	2021/12/14
PRA000117	SAA008411	ST014				"St.03_hiroshima bay_2019"	Water	"Sea water"	2019	7	12					Asia	Japan	"Hiroshima bay"	34.21888889		132.2672222															24.1					29.6																							2021/12/14	2021/12/14
PRA000117	SAA008412	ST014				"St.04_hiroshima bay_2019"	Water	"Sea water"	2019	7	12					Asia	Japan	"Hiroshima bay"	34.25166667		132.3333333															21.9					31.9																							2021/12/14	2021/12/14
PRA000117	SAA008413	ST014				"St.05_hiroshima bay_2019"	Water	"Sea water"	2019	7	9					Asia	Japan	"Hiroshima bay"	34.30194444		132.3505556															24.9					30.4																							2021/12/14	2021/12/14
PRA000117	SAA008414	ST014				"St.06_hiroshima bay_2019"	Water	"Sea water"	2019	7	9					Asia	Japan	"Hiroshima bay"	34.31694444		132.3177778															24.9					30.4																							2021/12/14	2021/12/14
PRA000117	SAA008415	ST014				"St.07_hiroshima bay_2019"	Water	"Sea water"	2019	7	11					Asia	Japan	"Hiroshima bay"	34.26777778		132.4002778															22.9					30.6																							2021/12/14	2021/12/14
PRA000117	SAA008416	ST014				"St.08_hiroshima bay_2019"	Water	"Sea water"	2019	7	9					Asia	Japan	"Hiroshima bay"	34.21833333		132.3683333															22.6					32.6																							2021/12/14	2021/12/14
PRA000117	SAA008417	ST014				"St.09_hiroshima bay_2019"	Water	"Sea water"	2019	7	9					Asia	Japan	"Hiroshima bay"	34.18333333		134.4344444															23.5					32.6																							2021/12/14	2021/12/14
PRA000117	SAA008418	ST014				"St.10_hiroshima bay_2019"	Water	"Sea water"	2019	7	12					Asia	Japan	"Hiroshima bay"	34.11833333		132.3341667															23.3					27.3																							2021/12/14	2021/12/14
PRA000117	SAA008419	ST014				"St.11_hiroshima bay_2019"	Water	"Sea water"	2019	7	10					Asia	Japan	"Hiroshima bay"	34.20111111		132.5013889															22.9					31.9																							2021/12/14	2021/12/14
PRA000117	SAA008420	ST014				"St.12_hiroshima bay_2019"	Water	"Sea water"	2019	7	10					Asia	Japan	"Hiroshima bay"	34.28472222		132.4836111															23					31.9																							2021/12/14	2021/12/14
PRA000117	SAA008421	ST014				"St.13_hiroshima bay_2019"	Water	"Sea water"	2019	7	10					Asia	Japan	"Hiroshima bay"	34.30111111		132.4525															23.3					31.7																							2021/12/14	2021/12/14
PRA000117	SAA008422	ST014				"St.14_hiroshima bay_2019"	Water	"Sea water"	2019	7	11					Asia	Japan	"Hiroshima bay"	34.23583333		132.4516667															24.7					32																							2021/12/14	2021/12/14
PRA000117	SAA008423	ST014				"St.15_hiroshima bay_2019"	Water	"Sea water"	2019	7	11					Asia	Japan	"Hiroshima bay"	34.2175		132.4672222															24.5					31.5																							2021/12/14	2021/12/14
PRA000117	SAA008424	ST014				"St.16_hiroshima bay_2019"	Water	"Sea water"	2019	7	11					Asia	Japan	"Hiroshima bay"	34.2675		132.4183333															23.1					31.2																							2021/12/14	2021/12/14
PRA000117	SAA008425	ST014				"St.17_hiroshima bay_2019"	Water	"Sea water"	2019	7	12					Asia	Japan	"Hiroshima bay"	34.20111111		132.3180556															23.3					28.6																							2021/12/14	2021/12/14
PRA000117	SAA008426	ST014				"St.18_hiroshima bay_2019"	Water	"Sea water"	2019	7	12					Asia	Japan	"Hiroshima bay"	34.18472222		132.3833333															23.1					30.9																							2021/12/14	2021/12/14
PRA000117	SAA008427	ST014				"St.19_hiroshima bay_2019"	Water	"Sea water"	2019	7	9					Asia	Japan	"Hiroshima bay"	34.28361111		132.3688889															24.1					30.9																							2021/12/14	2021/12/14
PRA000117	SAA008428	ST014				"St.20_hiroshima bay_2019"	Water	"Sea water"	2019	7	11					Asia	Japan	"Hiroshima bay"	34.30111111		132.4															23.3					28.6																							2021/12/14	2021/12/14
PRA000117	SAA008429	ST014				"St.21_hiroshima bay_2019"	Water	"Sea water"	2019	7	10					Asia	Japan	"Hiroshima bay"	34.33333333		132.3847222															23.5					30.9																							2021/12/14	2021/12/14
PRA000117	SAA008430	ST014				"St.22_hiroshima bay_2019"	Water	"Sea water"	2019	7	10					Asia	Japan	"Hiroshima bay"	34.33569444		132.4169444															23.3					31.2																							2021/12/14	2021/12/14
PRA000117	SAA008431	ST014				"St.23_hiroshima bay_2019"	Water	"Sea water"	2019	7	11					Asia	Japan	"Hiroshima bay"	34.285		132.4175															22.9					30.9																							2021/12/14	2021/12/14
